Lexington Weather

Lexington, Massachusetts, USA

78°F
7/25/2024 12:41pm 
  • Lexington Conditions: Mostly cloudy
  • Temperature: 77.7°F / 25.4°CWarmer 1.1°F than last hour.
  • Dew Point: 72.5°FIncreased 0.7°Fsince last hour.
  • Relative Humidity: 84%Decreased 1.0% since last hour.
  • Wind: Wind from WSW WSW 1 mph, 10-min avg: 1 mph, gust: 6 mph
  • Barometer: 29.93 inFalling 0.02  inHg/hr Falling Slowly
  • Visibility: 10 miles
  • Rain Today: 0.00 in
  •   

Regional Weather Roundup
for Boston, MA

        
000
ASUS41 KBOX 191510
RWRBOX

REGIONAL WEATHER ROUNDUP
NATIONAL WEATHER SERVICE BOSTON/NORTON MA
1100 AM EDT FRI JUL 19 2024

NOTE:  "FAIR" INDICATES FEW OR NO CLOUDS BELOW 12,000 FEET WITH NO 
SIGNIFICANT WEATHER AND/OR OBSTRUCTIONS TO VISIBILITY.

MAZALL-191600-
EASTERN MASSACHUSETTS
  
CITY           SKY/WX    TMP DP  RH WIND       PRES   REMARKS
BOSTON         MOSUNNY   76  54  46 NW10      30.08R                  
BEVERLY        SUNNY     75  54  47 N9        30.07S                  
LAWRENCE       SUNNY     74  55  51 NW5       30.10S                  
BEDFORD        MOSUNNY   76  56  49 NW10      30.07S                  
NORWOOD        SUNNY     78  60  53 MISG      30.09R                  
MARSHFIELD     SUNNY     72  54  53 NE8G14    30.08R                  
PLYMOUTH       SUNNY     78  54  43 N7        30.07S                  
TAUNTON        SUNNY     78  56  46 VRB3      30.08R                  
NEW BEDFORD    SUNNY     78  59  51 N6        30.07S                  
$$

MAZALL-191600-
CAPE COD AND THE ISLANDS
  
CITY           SKY/WX    TMP DP  RH WIND       PRES   REMARKS
FALMOUTH       SUNNY     73  57  56 NE9       30.09S                  
HYANNIS        SUNNY     70  57  63 N10G21    30.07R                  
CHATHAM        SUNNY     74  60  61 VRB5      30.08R                  
PROVINCETOWN   SUNNY     70  60  70 NW9       30.09R                  
NANTUCKET      SUNNY     76  63  64 N12       30.07R                  
MARTHAS VNYRD  SUNNY     76  59  55 NW8       30.08R                  
$$
 
MAZALL-191600-
CENTRAL AND WESTERN MASSACHUSETTS
  
CITY           SKY/WX    TMP DP  RH WIND       PRES   REMARKS
WORCESTER      SUNNY     71  52  50 NW7       30.12S                  
FITCHBURG      SUNNY     76  56  49 NW9G17    30.10S                  
ORANGE         SUNNY     74  54  49 N7G17     30.13S                  
SPRINGFIELD    MOSUNNY   74  55  51 N5        30.08S                  
WESTFIELD      SUNNY     76  56  49 NE8       30.11S                  
NORTH ADAMS    SUNNY     71  58  63 W5        30.14R                  
PITTSFIELD     SUNNY     72  55  55 VRB7      30.14S                  
$$
 
RIZALL-191600-
RHODE ISLAND
  
CITY           SKY/WX    TMP DP  RH WIND       PRES   REMARKS
PROVIDENCE     MOSUNNY   75  57  53 N3        30.09S                  
NEWPORT        SUNNY     73  57  57 NW6       30.09R                  
BLOCK ISLAND   SUNNY     73  58  59 N7          N/A                   
SMITHFIELD     SUNNY     74  57  55 N10       30.10S                  
WESTERLY       SUNNY     77  57  50 VRB3      30.09S                  
$$
 
CTZALL-191600-
CONNECTICUT
  
CITY           SKY/WX    TMP DP  RH WIND       PRES   REMARKS
BRADLEY INTL   MOSUNNY   78  55  44 N6        30.11S                  
HARTFORD       SUNNY     76  54  46 NW9       30.10S                  
PLAINVILLE     SUNNY     75  54  48 VRB6      30.11S                  
BRIDGEPORT     SUNNY     76  58  53 MISG      30.11S                  
DANBURY        SUNNY     75  57  53 N8        30.14S                  
GROTON         SUNNY     77  59  53 NW10      30.09R                  
NEW HAVEN      SUNNY     79  59  50 N8        30.10S                  
CHESTER        SUNNY     75  57  53 VRB5G12   30.12R                  
MERIDEN        SUNNY     76  54  46 MISG      30.11S                  
WILLIMANTIC    SUNNY     74  55  51 VRB3      30.10F                  
OXFORD         MOSUNNY   72  58  61 NW9       30.14S                  
$$

MEZ002-015-021-024-NHZ003-005-008-011-012-014-VTZ005-008-191600-
NORTHERN NEW ENGLAND
  
CITY           SKY/WX    TMP DP  RH WIND       PRES   REMARKS
PORTLAND ME    MOSUNNY   76  58  53 N7        30.06R                  
BANGOR ME      MOSUNNY   75  59  57 VRB3      30.01S                  
CONCORD NH     SUNNY     75  56  51 NW8       30.09R                  
MANCHESTER NH  MOSUNNY   77  54  44 W7        30.07S                  
NASHUA NH      MOSUNNY   75  56  51 NW8       30.09S                  
PORTSMOUTH NH  MOSUNNY   75  56  50 W6        30.06S                  
JAFFREY NH     MOSUNNY   74  55  51 MISG      30.12S                  
KEENE NH       SUNNY     73  55  53 NW10      30.11S                  
BURLINGTON VT  MOSUNNY   74  55  51 CALM      30.12R                  
MT. WASHINGTON NOT AVBL                                               
$$

NYZ052-076-191600-
EASTERN NEW YORK
  
CITY           SKY/WX    TMP DP  RH WIND       PRES   REMARKS
ALBANY         MOSUNNY   74  54  49 VRB5      30.14S                  
NEW YORK CITY  MOSUNNY   77  53  43 N7        30.11F                  
$$
 
ANZALL-191600-
MARINE OBSERVATIONS
  
STATION/POSITION TIME  TEMP    WIND        PRES    VSBY  WAVE
                       AIR SEA DIR/SP/G                  HT/PER
                 (UTC) (F)     (DEG/KT/KT) (MB)    (MI)  (FT/S)
BOSTON BUOY      1450   63 63  260/  2/  4 1018.9R         1/ 7
BUZZARDS BAY     1400   69      10/  3/  4 1018.8R
NANTUCKET SOUND  1440   70 76  350/ 12/ 16 1017.9R
MASS BAY-STELLWA 1304   67 63  320/  6/  6 1018.2R  1 7/8  2/ 8
ISLE OF SHOALS   1400   67     280/  6/  6 1017.5R
S OF BLOCK IS    1456      73                N/A           4/ 8
$$

......................KEY.........................
  SKY/WX - SKY CONDITION/PRESENT WEATHER
  TMP    - TEMPERATURE IN FAHRENHEIT
  DWPT   - DEWPOINT IN FAHRENHEIT
  RH     - RELATIVE HUMIDITY IN PERCENT
  WIND   - DIRECTION AND SPEED IN MPH
  PRES   - MEAN SEA LEVEL PRESSURE IN INCHES OF HG
  WCI    - WIND CHILL INDEX
  VSB    - VISIBILITY IN MILES
  HX     - HEAT INDEX
  TC     - TEMPERATURE IN CELSIUS
  VRB    - VARIABLE WIND DIRECTION
  N/A    - NOT AVAILABLE
  
      

Other recent Regional Weather Roundups

Thu Jul 25, 12:10pm EDT

Thu Jul 25, 11:10am EDT

Thu Jul 25, 10:10am EDT

Thu Jul 25, 9:10am EDT

Thu Jul 25, 8:10am EDT

Thu Jul 25, 7:10am EDT

Thu Jul 25, 6:10am EDT

Thu Jul 25, 5:10am EDT

Thu Jul 25, 4:10am EDT

Thu Jul 25, 3:10am EDT

Thu Jul 25, 2:10am EDT

Thu Jul 25, 1:10am EDT

Thu Jul 25, 12:10am EDT

Wed Jul 24, 11:10pm EDT

Wed Jul 24, 10:10pm EDT

Wed Jul 24, 9:10pm EDT

Wed Jul 24, 8:10pm EDT

Wed Jul 24, 7:10pm EDT

Wed Jul 24, 6:10pm EDT

Wed Jul 24, 5:10pm EDT

Wed Jul 24, 4:10pm EDT

Wed Jul 24, 3:10pm EDT

Wed Jul 24, 2:10pm EDT

Wed Jul 24, 1:10pm EDT

Wed Jul 24, 12:10pm EDT

Wed Jul 24, 11:10am EDT

Wed Jul 24, 10:10am EDT

Wed Jul 24, 9:10am EDT

Wed Jul 24, 8:10am EDT

Wed Jul 24, 7:10am EDT

Wed Jul 24, 6:10am EDT

Wed Jul 24, 5:10am EDT

Wed Jul 24, 4:10am EDT

Wed Jul 24, 3:10am EDT

Wed Jul 24, 2:10am EDT

Wed Jul 24, 1:10am EDT

Wed Jul 24, 12:10am EDT

Tue Jul 23, 11:10pm EDT

Tue Jul 23, 10:10pm EDT

Tue Jul 23, 9:10pm EDT

Tue Jul 23, 8:10pm EDT

Tue Jul 23, 7:10pm EDT

Tue Jul 23, 6:10pm EDT

Tue Jul 23, 5:10pm EDT

Tue Jul 23, 4:10pm EDT

Tue Jul 23, 3:10pm EDT

Tue Jul 23, 2:10pm EDT

Tue Jul 23, 1:10pm EDT

Tue Jul 23, 12:10pm EDT

Tue Jul 23, 11:10am EDT

Tue Jul 23, 10:10am EDT

Tue Jul 23, 10:10am EDT

Tue Jul 23, 9:10am EDT

Tue Jul 23, 8:10am EDT

Tue Jul 23, 7:10am EDT

Tue Jul 23, 6:10am EDT

Tue Jul 23, 5:10am EDT

Tue Jul 23, 4:10am EDT

Tue Jul 23, 3:10am EDT

Tue Jul 23, 2:10am EDT

Tue Jul 23, 1:10am EDT

Tue Jul 23, 12:10am EDT

Mon Jul 22, 11:10pm EDT

Mon Jul 22, 10:10pm EDT

Mon Jul 22, 9:10pm EDT

Mon Jul 22, 8:10pm EDT

Mon Jul 22, 7:10pm EDT

Mon Jul 22, 6:10pm EDT

Mon Jul 22, 5:10pm EDT

Mon Jul 22, 4:10pm EDT

Mon Jul 22, 3:10pm EDT

Mon Jul 22, 2:10pm EDT

Mon Jul 22, 1:10pm EDT

Mon Jul 22, 12:10pm EDT

Mon Jul 22, 11:10am EDT

Mon Jul 22, 10:10am EDT

Mon Jul 22, 9:10am EDT

Mon Jul 22, 8:10am EDT

Mon Jul 22, 7:10am EDT

Mon Jul 22, 6:10am EDT

Mon Jul 22, 5:10am EDT

Mon Jul 22, 4:10am EDT

Mon Jul 22, 3:10am EDT

Mon Jul 22, 2:10am EDT

Mon Jul 22, 1:10am EDT

Mon Jul 22, 12:10am EDT

Sun Jul 21, 11:10pm EDT

Sun Jul 21, 10:10pm EDT

Sun Jul 21, 9:10pm EDT

Sun Jul 21, 8:10pm EDT

Sun Jul 21, 7:10pm EDT

Sun Jul 21, 6:10pm EDT

Sun Jul 21, 5:10pm EDT

Sun Jul 21, 4:10pm EDT

Sun Jul 21, 3:10pm EDT

Sun Jul 21, 2:10pm EDT

Sun Jul 21, 1:10pm EDT

Sun Jul 21, 12:10pm EDT

Sun Jul 21, 11:10am EDT

Sun Jul 21, 10:10am EDT

Sun Jul 21, 9:10am EDT

Sun Jul 21, 8:10am EDT

Sun Jul 21, 7:10am EDT

Sun Jul 21, 6:10am EDT

Sun Jul 21, 5:10am EDT

Sun Jul 21, 4:10am EDT

Sun Jul 21, 3:10am EDT

Sun Jul 21, 2:10am EDT

Sun Jul 21, 1:10am EDT

Sun Jul 21, 12:10am EDT

Sat Jul 20, 11:10pm EDT

Sat Jul 20, 10:10pm EDT

Sat Jul 20, 9:10pm EDT

Sat Jul 20, 8:10pm EDT

Sat Jul 20, 7:10pm EDT

Sat Jul 20, 6:10pm EDT

Sat Jul 20, 5:10pm EDT

Sat Jul 20, 4:10pm EDT

Sat Jul 20, 3:10pm EDT

Sat Jul 20, 2:10pm EDT

Sat Jul 20, 1:10pm EDT

Sat Jul 20, 12:10pm EDT

Sat Jul 20, 11:10am EDT

Sat Jul 20, 10:10am EDT

Sat Jul 20, 9:10am EDT

Sat Jul 20, 8:10am EDT

Sat Jul 20, 7:10am EDT

Sat Jul 20, 6:10am EDT

Sat Jul 20, 5:10am EDT

Sat Jul 20, 4:10am EDT

Sat Jul 20, 3:10am EDT

Sat Jul 20, 2:10am EDT

Sat Jul 20, 1:10am EDT

Sat Jul 20, 12:10am EDT

Fri Jul 19, 11:10pm EDT

Fri Jul 19, 10:10pm EDT

Fri Jul 19, 9:10pm EDT

Fri Jul 19, 8:10pm EDT

Fri Jul 19, 7:10pm EDT

Fri Jul 19, 6:10pm EDT

Fri Jul 19, 5:10pm EDT

Fri Jul 19, 4:10pm EDT

Fri Jul 19, 3:10pm EDT

Fri Jul 19, 2:10pm EDT

Fri Jul 19, 1:10pm EDT

Fri Jul 19, 12:10pm EDT

Fri Jul 19, 10:10am EDT

Fri Jul 19, 9:10am EDT

Fri Jul 19, 8:10am EDT

Fri Jul 19, 7:10am EDT

Fri Jul 19, 6:10am EDT

Fri Jul 19, 5:10am EDT

Fri Jul 19, 4:10am EDT

Fri Jul 19, 3:10am EDT

Fri Jul 19, 2:10am EDT

Fri Jul 19, 1:10am EDT

Fri Jul 19, 12:10am EDT

Thu Jul 18, 11:10pm EDT

Thu Jul 18, 10:10pm EDT

Thu Jul 18, 9:10pm EDT

Thu Jul 18, 8:10pm EDT

Thu Jul 18, 7:10pm EDT

Thu Jul 18, 6:10pm EDT

Thu Jul 18, 5:10pm EDT

Thu Jul 18, 4:10pm EDT

Thu Jul 18, 3:10pm EDT

Thu Jul 18, 2:10pm EDT

Thu Jul 18, 1:10pm EDT